Location: Unspecified
(48.5539°N, 71.6350°W)
Time: 00:45:37
(UTC-05:00)

ISS - Pass Details

Date: 01 February 2019
Orbit: 403 x 411 km, 51.6° (Epoch: 22 February)

Event Time Altitude Azimuth Distance (km) Brightness Sun altitude
Rises 14:17:45 0° 202° (SSW) 2,313 1.6 17.6°
Reaches altitude 10° 14:20:17 10° 181° (S) 1,460 0.1 17.4°
Maximum altitude 14:22:30 17° 138° (SE) 1,113 -1.3 17.2°
Drops below altitude 10° 14:24:44 10° 96° (E) 1,470 -1.2 17.0°
Sets 14:27:18 0° 75° (ENE) 2,337 -0.4 16.7°
